Location: Silverdale
(47.6506°N, 122.6941°W)
Time: 01:48:01
(UTC+00:00)

A-11 Canister half - Pass Details

Date: 11 October 2022
Orbit: 1524 x 1685 km, 47.3° (Epoch: 05 December)

Event Time Altitude Azimuth Distance (km) Brightness Sun altitude
Rises 04:54:03 0° 289° (WNW) 4,707 12.6 -33.8°
Reaches altitude 10° 04:58:01 10° 274° (W) 3,740 11.7 -34.3°
Maximum altitude 05:04:29 21° 231° (SW) 2,989 10.6 -35.2°
Enters shadow 05:08:02 17° 203° (SSW) 3,259 10.6 -35.7°
